Weather History for Shenandoah, IA

Change the Weather History Date:

Monday, October 20, 2014

  Actual Average Record
Temperature  
Mean Temperature 55 °F -  
Max Temperature 71 °F 64 °F 87 °F (2003)
Min Temperature 39 °F 40 °F 19 °F (1960)
Degree Days  
Heating Degree Days 10    
Growing Degree Days 5 (Base 50)    
Moisture  
Dew Point 43 °F    
Average Humidity 71    
Maximum Humidity 100    
Minimum Humidity 29    
Precipitation  
Precipitation 0.00 in - - ()
Sea Level Pressure  
Sea Level Pressure 30.04 in    
Wind  
Wind Speed 3 mph (NW)    
Max Wind Speed 9 mph    
Max Gust Speed 12 mph    
Visibility 9 miles    
Events Fog    
Averages and records for this station are not official NWS values.
T = Trace of Precipitation, MM = Missing Value Source: NWS Daily Summary

Daily Weather History Graph

Daily Weather History Graph

Search for Another Location

Airport:

Trip Planner

Search our weather history database for the weather conditions in past years. The results will help you decide how hot, cold, wet, or windy it might be!

Date:

Astronomy

Oct. 20, 2014 Rise Set
Actual Time 7:38 AM CDT 6:33 PM CDT
Civil Twilight 7:10 AM CDT 7:01 PM CDT
Nautical Twilight 6:38 AM CDT 7:33 PM CDT
Astronomical Twilight 6:06 AM CDT 8:05 PM CDT
Moon 4:26 AM CDT (10/20) 4:57 PM CDT (10/20)
Length of Visible Light 11h 51m
Length of Day
10h 55m
Waning Crescent, 10% of the Moon is Illuminated
Oct 20
Waning Crescent
Oct 23
New
Oct 30
First Quarter
Nov 6
Full
Nov 14
Last Quarter

Hourly Weather History & Observations

Time (CDT) Temp. Windchill Dew Point Humidity Pressure Visibility Wind Dir Wind Speed Gust Speed Precip Events Conditions
12:15 AM 50.0 °F - 46.4 °F 87% 29.97 in 10.0 mi SW 5.8 mph - N/A   Clear
12:35 AM 50.0 °F - 46.4 °F 87% 29.97 in 10.0 mi SW 4.6 mph - N/A   Clear
12:55 AM 50.0 °F - 46.4 °F 87% 29.97 in 10.0 mi WSW 4.6 mph - N/A   Clear
1:15 AM 48.2 °F - 46.4 °F 93% 29.97 in 10.0 mi SW 5.8 mph - N/A   Clear
1:35 AM 48.2 °F - 46.4 °F 93% 29.98 in 10.0 mi WSW 4.6 mph - N/A   Clear
1:55 AM 48.2 °F - 46.4 °F 93% 29.98 in 10.0 mi WSW 5.8 mph - N/A   Unknown
2:15 AM 48.2 °F - 46.4 °F 93% 29.98 in 10.0 mi WSW 5.8 mph - N/A   Unknown
2:35 AM 48.2 °F - 46.4 °F 93% 29.99 in 10.0 mi ENE 4.6 mph - N/A   Unknown
2:55 AM 48.2 °F - 46.4 °F 93% 29.98 in 10.0 mi SW 3.5 mph - N/A   Clear
3:15 AM 48.2 °F - 46.4 °F 93% 29.98 in 10.0 mi South 3.5 mph - N/A   Clear
3:35 AM 46.4 °F 44.3 °F 44.6 °F 93% 29.98 in 10.0 mi SSW 4.6 mph - N/A   Clear
3:55 AM 46.4 °F 44.3 °F 44.6 °F 93% 29.97 in 10.0 mi SSW 4.6 mph - N/A   Unknown
4:15 AM 44.6 °F 41.4 °F 42.8 °F 93% 29.97 in 10.0 mi SW 5.8 mph - N/A   Unknown
4:35 AM 46.4 °F - 46.4 °F 100% 29.98 in 10.0 mi Calm Calm - N/A   Clear
4:55 AM 44.6 °F - 44.6 °F 100% 29.99 in 10.0 mi Calm Calm - N/A   Clear
5:15 AM 46.4 °F - 46.4 °F 100% 29.99 in 10.0 mi Calm Calm - N/A   Unknown
5:35 AM 44.6 °F - 42.8 °F 93% 30.00 in 10.0 mi Calm Calm - N/A   Unknown
5:55 AM 44.6 °F - 42.8 °F 93% 30.01 in 10.0 mi Calm Calm - N/A   Unknown
6:15 AM 44.6 °F - 44.6 °F 100% 30.01 in 0.2 mi Calm Calm - N/A Fog Fog
6:35 AM 42.8 °F - 42.8 °F 100% 30.02 in 1.0 mi Calm Calm - N/A   Clear
6:55 AM 42.8 °F - 42.8 °F 100% 30.03 in 3.0 mi Calm Calm - N/A   Clear
7:15 AM 39.2 °F - 39.2 °F 100% 30.04 in 1.0 mi Calm Calm - N/A   Mist
7:35 AM 42.8 °F - 42.8 °F 100% 30.04 in 0.2 mi Calm Calm - N/A Fog Fog
7:55 AM 41.0 °F - 41.0 °F 100% 30.05 in 0.2 mi Calm Calm - N/A Fog Fog
8:15 AM 41.0 °F - 41.0 °F 100% 30.06 in 0.2 mi Calm Calm - N/A Fog Fog
8:35 AM 42.8 °F - 42.8 °F 100% 30.07 in 0.2 mi Calm Calm - N/A Fog Fog
8:55 AM 46.4 °F - 46.4 °F 100% 30.08 in 9.0 mi Calm Calm - N/A   Clear
9:15 AM 50.0 °F - 48.2 °F 94% 30.09 in 10.0 mi Calm Calm - N/A   Clear
9:35 AM 53.6 °F - 48.2 °F 82% 30.09 in 10.0 mi Calm Calm - N/A   Clear
9:55 AM 55.4 °F - 46.4 °F 72% 30.09 in 10.0 mi NE 4.6 mph - N/A   Clear
10:15 AM 57.2 °F - 46.4 °F 67% 30.10 in 10.0 mi NE 3.5 mph - N/A   Clear
10:35 AM 59.0 °F - 48.2 °F 67% 30.10 in 10.0 mi East 3.5 mph - N/A   Clear
10:55 AM 60.8 °F - 48.2 °F 63% 30.10 in 10.0 mi ENE 6.9 mph - N/A   Clear
11:15 AM 62.6 °F - 46.4 °F 55% 30.10 in 10.0 mi ENE 6.9 mph - N/A   Clear
11:35 AM 64.4 °F - 44.6 °F 49% 30.10 in 10.0 mi Variable 3.5 mph - N/A   Clear
11:55 AM 66.2 °F - 42.8 °F 43% 30.10 in 10.0 mi North 5.8 mph - N/A   Clear
12:15 PM 66.2 °F - 44.6 °F 46% 30.10 in 10.0 mi Calm Calm - N/A   Clear
12:35 PM 68.0 °F - 42.8 °F 40% 30.09 in 10.0 mi Calm Calm - N/A   Partly Cloudy
12:55 PM 69.8 °F - 41.0 °F 35% 30.08 in 10.0 mi Calm Calm - N/A   Clear
1:15 PM 69.8 °F - 42.8 °F 38% 30.08 in 10.0 mi Calm Calm - N/A   Clear
1:35 PM 69.8 °F - 39.2 °F 33% 30.07 in 10.0 mi Variable 5.8 mph - N/A   Clear
1:55 PM 69.8 °F - 37.4 °F 31% 30.06 in 10.0 mi Calm Calm 11.5 mph N/A   Clear
2:15 PM 71.6 °F - 39.2 °F 31% 30.06 in 10.0 mi North 9.2 mph - N/A   Clear
2:35 PM 71.6 °F - 37.4 °F 29% 30.06 in 10.0 mi Variable 5.8 mph - N/A   Clear
2:55 PM 71.6 °F - 39.2 °F 31% 30.05 in 10.0 mi North 8.1 mph - N/A   Clear
3:15 PM 71.6 °F - 37.4 °F 29% 30.05 in 10.0 mi Variable 3.5 mph - N/A   Clear
3:35 PM 71.6 °F - 37.4 °F 29% 30.04 in 10.0 mi Variable 4.6 mph - N/A   Clear
3:55 PM 71.6 °F - 37.4 °F 29% 30.04 in 10.0 mi WNW 4.6 mph 11.5 mph N/A   Clear
4:15 PM 71.6 °F - 37.4 °F 29% 30.04 in 10.0 mi Variable 6.9 mph - N/A   Clear
4:35 PM 71.6 °F - 37.4 °F 29% 30.04 in 10.0 mi Variable 4.6 mph - N/A   Clear
4:55 PM 71.6 °F - 39.2 °F 31% 30.04 in 10.0 mi NNW 6.9 mph - N/A   Clear
5:15 PM 71.6 °F - 39.2 °F 31% 30.04 in 10.0 mi NNW 6.9 mph - N/A   Clear
5:35 PM 69.8 °F - 41.0 °F 35% 30.04 in 10.0 mi NW 5.8 mph - N/A   Clear
5:55 PM 69.8 °F - 39.2 °F 33% 30.04 in 10.0 mi NNW 6.9 mph - N/A   Clear
6:15 PM 68.0 °F - 39.2 °F 35% 30.05 in 10.0 mi NW 4.6 mph - N/A   Clear
6:35 PM 64.4 °F - 39.2 °F 40% 30.05 in 10.0 mi NW 4.6 mph - N/A   Clear
6:55 PM 59.0 °F - 41.0 °F 51% 30.06 in 7.0 mi NW 3.5 mph - N/A   Clear
7:15 PM 57.2 °F - 41.0 °F 55% 30.06 in 10.0 mi Calm Calm - N/A   Clear
7:35 PM 55.4 °F - 41.0 °F 58% 30.06 in 10.0 mi Calm Calm - N/A   Clear
7:55 PM 57.2 °F - 42.8 °F 59% 30.06 in 10.0 mi Calm Calm - N/A   Unknown
8:15 PM 50.0 °F - 42.8 °F 76% 30.06 in 10.0 mi Calm Calm - N/A   Clear
8:35 PM 48.2 °F - 42.8 °F 82% 30.06 in 10.0 mi Calm Calm - N/A   Unknown
8:55 PM 48.2 °F - 42.8 °F 82% 30.06 in 10.0 mi South 3.5 mph - N/A   Clear
9:15 PM 48.2 °F - 42.8 °F 82% 30.06 in 10.0 mi Calm Calm - N/A   Clear
9:35 PM 46.4 °F - 41.0 °F 81% 30.07 in 10.0 mi Calm Calm - N/A   Clear
9:55 PM 44.6 °F - 41.0 °F 87% 30.07 in 10.0 mi Calm Calm - N/A   Clear
10:15 PM 42.8 °F - 41.0 °F 93% 30.07 in 10.0 mi Calm Calm - N/A   Clear
10:35 PM 44.6 °F - 42.8 °F 93% 30.08 in 10.0 mi Calm Calm - N/A   Unknown
10:55 PM 44.6 °F - 42.8 °F 93% 30.08 in 10.0 mi Calm Calm - N/A   Unknown
11:15 PM 44.6 °F 42.2 °F 42.8 °F 93% 30.08 in - NE 4.6 mph - N/A   Unknown
11:35 PM 42.8 °F 39.3 °F 41.0 °F 93% 30.08 in 10.0 mi NE 5.8 mph - N/A   Clear
11:55 PM 42.8 °F 39.3 °F 41.0 °F 93% 30.08 in 10.0 mi NE 5.8 mph - N/A   Clear